Regional Weather Roundup
Issued by NWS Jackson, KY

Home | Current Version | Previous Version | Graphics & Text | Print | Product List | Glossary On
Versions: 1 2 3 4 5 6 7 8 9 10 11 12 13 14 15 16 17 18 19 20 21 22 23 24 25 26 27 28 29 30 31 32 33 34 35 36 37 38 39 40 41 42 43 44 45 46 47 48 49 50
000
ASUS43 KJKL 261019
RWRJKL

EAST KENTUCKY HOURLY WEATHER ROUNDUP
NATIONAL WEATHER SERVICE JACKSON KY
600 AM EDT SAT JUL 26 2014

NOTE: "FAIR" INDICATES FEW OR NO CLOUDS BELOW 12,000 FEET WITH
NO SIGNIFICANT WEATHER AND/OR OBSTRUCTIONS TO VISIBILITY.

* THESE REPORTS ARE NOT UNDER NWS QUALITY CONTROL AND MAY NOT
  REPORT WEATHER SUCH AS PRECIPITATION AND FOG.

KYZ079-080-083-085-087-088-110-112-115-119-120-261100
...EASTERN KENTUCKY...

CITY           SKY/WX    TMP DP  RH WIND       PRES   REMARKS
JACKSON        CLEAR     62  59  90 CALM      30.04S FOG
LONDON         PTCLDY    62  59  90 CALM      30.05R FOG
SOMERSET*      PTCLDY    61  61 100 CALM      30.05R
MONTICELLO*    CLEAR     62  61  97 CALM      30.05R FOG
WILLIAMSBURG*  CLOUDY    59  59 100 CALM      30.05
MIDDLESBORO*   FOG       62  62 100 CALM      30.07S VSB 1
HARLAN APT*    CLOUDY    61  61 100 MISG      30.07S VSB<1/4
BLACK MTN*       N/A     61  55  82 SW3         N/A
PIKEVILLE APT* CLEAR     63  61  94 S3        30.05R
BIG SANDY*     MOSUNNY   62  61  96 CALM      30.04R
MOREHEAD APT*  CLOUDY    63  61  94 CALM      30.04S FOG
ASHLAND*       CLOUDY    64  59  82 CALM      30.00R
$$

KYZ035-036-041-042-044-050-067-078-099-261100
...CENTRAL KENTUCKY...

CITY           SKY/WX    TMP DP  RH WIND       PRES   REMARKS
MT STERLING*   CLOUDY    63  61  94 SW3       30.03S
FLEMING/MASON* PTCLDY    64  60  88 S6        30.02S
DANVILLE*      CLEAR     63  59  88 SW5       30.03R
RICHMOND*      PTCLDY    64  59  82 CALM      30.02S
LEXINGTON      CLEAR     66  60  81 S5        30.01S
FRANKFORT      MOCLDY    64  60  87 CALM      29.99S
$$

KYZ091>093-OHZ055-061-077-WVZ005-015-034-035-042-261100
...SOUTHERN OHIO/WEST VIRGINIA...

CITY           SKY/WX    TMP DP  RH WIND       PRES   REMARKS
COVINGTON      CLOUDY    66  60  81 S6        29.97F
COLUMBUS       MOCLDY    69  59  70 S3        29.98S
DAYTON         CLOUDY    67  60  78 SE6       29.97F
WILMINGTON     CLOUDY    65  60  84 S5        29.99S
HUNTINGTON     MOCLDY    62  61  96 E3        30.02R FOG
CHARLESTON     MOCLDY    63  63 100 CALM      30.02S
PINEVILLE*     PTCLDY    59  59 100 MISG      30.12R FOG
BECKLEY        CLEAR     59  56  89 CALM      30.09R
BLUEFIELD      PTCLDY    63  57  81 W3        30.12R
$$

VAZ002-007-008-TNZ017-027-036-066-071-261100
...SOUTHWEST VIRGINIA/EAST TENNESSEE...

CITY           SKY/WX    TMP DP  RH WIND       PRES   REMARKS
WISE*          CLEAR     61  59  94 CALM      30.12S
JONESVILLE*    FOG       59  59 100 CALM      30.09R VSB 1/2
ABINGDON*      MOCLDY    63  61  93 CALM      30.10R
BRISTOL        MOCLDY    62  60  93 CALM      30.08R
KNOXVILLE      PTCLDY    63  61  93 E3        30.04R
OAK RIDGE      CLEAR     64  62  93 CALM      30.06R
CROSSVILLE     CLEAR     60  57  89 CALM      30.08S
NASHVILLE      CLEAR     66  64  93 CALM      30.02S
$$

...KEY TO REMARKS...
VSB - VISIBILITY IN MILES
WCI - WIND CHILL INDEX
HX  - HEAT INDEX

$$



USA.gov is the U.S. government's official web portal to all federal, state and local government web resources and services.